Tracking 18851 objects as of 25-Nov-2017
HD Live streaming from Space Station
objects crossing your sky now

FENGYUN 1C DEB

Track FENGYUN 1C DEB now!
10-day predictions


NORAD ID: 38119
Int'l Code: 1999-025EPQ
Perigee: 733.1 km
Apogee: 1,286.3 km
Inclination: 98.6 °
Period: 105.2 minutes
Semi major axis: 7380 km
RCS: 0.008 m2 (small)
Launch date: May 10, 1999
Source: People's Republic of China (PRC)
Launch site: Taiyaun Space Center, China (TSC)

Note: This is SATELLITE DEBRIS
aabbcc
Your satellite tracking list
Your tracking list is empty




NASA's NSSDC Master Catalog

Two Line Element Set (TLE):
1 38119U 99025EPQ 17326.03547845 +.00001153 +00000-0 +84215-3 0  9995
2 38119 098.6142 254.8372 0374719 287.5470 128.6178 13.69162728134184
Source of the keplerian elements: AFSPC